sat.trackr.live / text

‹ back to catalog

ONEWEB-0145

NORAD 47291 · 2020-100AK

PAYLOAD ACTIVE UNKNOWN

§ Identity

Operator
Country
UK
Launch date
2020-12-18
Launch site
VOSTO
Launch vehicle
Mass (kg)
RCS (m²)

Purposes: comms

External: N2YO · Heavens-Above · Gunter

§ Orbital elements

Epoch: 2026-05-25T02:02:17.671200Z

Period
109.72 min
Inclination
87.8953°
Eccentricity
0.0001724
Mean motion
13.12442975 rev/d
Perigee alt
1,212.4 km
Apogee alt
1,215.0 km
Semi-major
7,591.9 km
B*
-6.9057e-4
RAAN
355.2651°
Arg perigee
88.2147°
Mean anomaly
271.9179°
Rev number
26,173

§ Raw data

ONEWEB-01451 47291U 20100AK  26145.08492675 -.00000236  00000+0 -69057-3 0  99972 47291  87.8953 355.2651 0001724  88.2147 271.9179 13.12442975261739

JSON: /api/v1/satellites/47291 · /tle

For live sub-satellite position, see the globe view (requires WebGL).

§ Visibility from observer

Set your observer location to see the next 7 days of passes ≥ 10°. The values pass through the URL so the page stays shareable.

No JS? Fill the form by hand. The geolocation button needs JavaScript.